Regional Weather Roundup
Issued by NWS Cleveland, OH

Home | Current Version | Previous Version | Text Only | Print | Product List | Glossary Off
Versions: 1 2 3 4 5 6 7 8 9 10 11 12 13 14 15 16 17 18 19 20 21 22 23 24 25 26 27 28 29 30 31 32 33 34 35 36 37 38 39 40 41 42 43 44 45 46 47 48 49 50

000
ASUS41 KCLE 170612
RWRCLE
OHIO REGIONAL WEATHER ROUNDUP
NATIONAL WEATHER SERVICE WILMINGTON, OH
200 AM EDT THU AUG 17 2017

NOTE: "FAIR" INDICATES FEW OR NO CLOUDS BELOW 12,000 FEET WITH NO
SIGNIFICANT WEATHER AND/OR OBSTRUCTIONS TO VISIBILITY.

OHZ001>008-015>018-024>027-034-035-043-044-170700-
   NORTHWEST OHIO

CITY           SKY/WX    TMP DP  RH WIND       PRES   REMARKS
DEFIANCE       FAIR      72  65  78 SE7       29.93F
FINDLAY        MOCLDY    73  67  81 SE8       29.95F
TOLEDO EXPRESS FAIR      70  61  73 SE5       29.94F
TOLEDO EXEC    FAIR      70  61  73 E8        29.96F
LIMA           FAIR      73  70  90 S6        29.96F
$$

OHZ009>014-019>023-028>033-038-089-170700-
   NORTHEAST OHIO

CITY           SKY/WX    TMP DP  RH WIND       PRES   REMARKS
CLE-HOPKINS    MOCLDY    72  58  61 S6        30.02F
CLE-LAKEFRONT  FAIR      74  55  51 SE5       29.99F
CUY CO. ARPT   NOT AVBL
LORAIN-ELYRIA  FAIR      67  56  67 SE6       30.00F
ASHTABULA      FAIR      60  57  89 E5        30.05F
AKRON-CANTON   FAIR      71  59  65 SE7       30.03F
WOOSTER        FAIR      64  63  96 E3        30.03F
MANSFIELD      FAIR      72  67  84 SE8       30.01F
YOUNGSTOWN     FAIR      63  58  83 E7        30.04F
$$

OHZ042-051>053-060>062-070>072-077>081-170700-
  SOUTHWEST OHIO

CITY           SKY/WX    TMP DP  RH WIND       PRES   REMARKS
CINC-COVINGTON FAIR      75  73  93 S7        29.97F
CINC-LUNKEN    FAIR      75  72  90 S3        29.96F
HAMILTON       FAIR      77  73  87 CALM      29.96F
DAYTON         FAIR      76  70  82 S8        29.97F
WRIGHT-PAT AFB DRIZZLE   76  75  97 S7        29.96F
DAYTON GENERAL FAIR      75  71  87 S9        29.97S
WILMINGTON     FAIR      74  72  93 S7        29.98F
$$

OHZ036-037-039>041-045>050-054>059-063>069-073>076-082>088-170700-
  CENTRAL AND SOUTHEAST OHIO

CITY           SKY/WX    TMP DP  RH WIND       PRES   REMARKS
COLUMBUS       MOCLDY    77  71  82 SE5       29.98F
OSU AIRPORT    FAIR      77  71  82 SE7       29.98F
BOLTON FIELD   FAIR      73  70  93 S5        29.99F
RICKENBACK AFB FAIR      73  71  93 SE5       29.98S
NEWARK         FAIR      71  68  90 CALM      29.99F
MARION         FAIR      72  67  84 SE8       29.98F
LANCASTER      FAIR      74  71  91 SE5       30.00F
ZANESVILLE     MOCLDY    71  67  87 CALM      30.01F
NEW PHILLY     FAIR      67  65  93 E3        30.02F
$$



USA.gov is the U.S. government's official web portal to all federal, state and local government web resources and services.